When you browse on this site, cookies collect data to enhance your experience and personalize the content and advertising you see.
Visit our Privacy Policy to learn more. By continuing to use the site, you agree to this use of cookies and data.
  • In Spain
  • List of Countries
  • For 7 days
  • Water Temperature
  • Satellite Maps
  • Weather Map
  • Weather Widgets
  • user-avatar
    Login

    Hourly Weather Uige

    Today, 13 December, Thursday

    Time Temperature Precipitation Wind Pressure Humidity
    00:00 +19°C° 0 mm 0 mps 692 mmHg 96%
    01:00 +19°C° 0 mm 0 mps 692 mmHg 97%
    02:00 +19°C° 0.1 mm 0 mps 692 mmHg 97%
    03:00 +19°C° 0.1 mm 0 mps 692 mmHg 98%
    04:00 +19°C° 0.1 mm 0 mps 692 mmHg 98%
    05:00 +19°C° 0 mm 0 mps 692 mmHg 97%
    06:00 +20°C° 0 mm 0 mps 693 mmHg 97%
    07:00 +21°C° 0 mm 0 mps 693 mmHg 97%
    08:00 +22°C° 0.3 mm 0 mps 693 mmHg 90%
    09:00 +24°C° 0.3 mm 0 mps 694 mmHg 83%
    10:00 +26°C° 0.3 mm 0 mps 694 mmHg 77%
    11:00 +27°C° 0.7 mm 0 mps 693 mmHg 75%
    12:00 +27°C° 0.7 mm 0 mps 693 mmHg 74%
    13:00 +30°C° 0.7 mm 1 mps 692 mmHg 72%
    14:00 +29°C° 1.4 mm 1 mps 691 mmHg 77%
    15:00 +28°C° 1.4 mm 1 mps 691 mmHg 81%
    16:00 +28°C° 1.4 mm 1 mps 690 mmHg 86%
    17:00 +26°C° 1.2 mm 1 mps 691 mmHg 89%
    18:00 +23°C° 1.2 mm 0 mps 691 mmHg 91%
    19:00 +21°C° 1.2 mm 0 mps 691 mmHg 93%
    20:00 +21°C° 0.8 mm 0 mps 692 mmHg 94%
    21:00 +20°C° 0.8 mm 0 mps 692 mmHg 95%
    22:00 +20°C° 0.8 mm 0 mps 693 mmHg 96%
    23:00 +20°C° 1.6 mm 0 mps 693 mmHg 96%

    Tomorrow, 14 December, Friday

    Time Temperature Precipitation Wind Pressure Humidity
    00:00 +20°C° 1.6 mm 0 mps 693 mmHg 96%
    01:00 +20°C° 1.6 mm 0 mps 693 mmHg 97%
    02:00 +20°C° 0.9 mm 0 mps 693 mmHg 97%
    03:00 +20°C° 0.9 mm 0 mps 692 mmHg 97%
    04:00 +22°C° 0.9 mm 1 mps 692 mmHg 97%
    05:00 +22°C° 0.4 mm 1 mps 693 mmHg 97%
    06:00 +22°C° 0.4 mm 1 mps 693 mmHg 98%
    07:00 +22°C° 0.4 mm 1 mps 694 mmHg 98%
    08:00 +22°C° 0.9 mm 1 mps 694 mmHg 97%
    09:00 +23°C° 0.9 mm 1 mps 694 mmHg 97%
    10:00 +23°C° 0.9 mm 1 mps 694 mmHg 96%
    11:00 +24°C° 0.2 mm 1 mps 694 mmHg 89%
    12:00 +25°C° 0.2 mm 1 mps 693 mmHg 82%
    13:00 +27°C° 0.2 mm 1 mps 693 mmHg 76%
    14:00 +26°C° 0.4 mm 1 mps 692 mmHg 78%
    15:00 +26°C° 0.4 mm 1 mps 692 mmHg 80%
    16:00 +26°C° 0.4 mm 1 mps 691 mmHg 82%
    17:00 +25°C° 0.8 mm 1 mps 692 mmHg 87%
    18:00 +23°C° 0.8 mm 1 mps 692 mmHg 91%
    19:00 +22°C° 0.8 mm 1 mps 692 mmHg 96%
    20:00 +22°C° 0.2 mm 1 mps 693 mmHg 96%
    21:00 +19°C° 0.2 mm 0 mps 693 mmHg 96%
    22:00 +19°C° 0.2 mm 0 mps 694 mmHg 97%
    23:00 +19°C° 0.1 mm 0 mps 693 mmHg 97%

    Day after tomorrow, 15 December, Saturday

    Time Temperature Precipitation Wind Pressure Humidity
    00:00 +21°C° 0.1 mm 1 mps 693 mmHg 97%
    01:00 +21°C° 0.1 mm 1 mps 693 mmHg 98%
    02:00 +21°C° 0.1 mm 1 mps 692 mmHg 98%
    03:00 +21°C° 0.1 mm 1 mps 692 mmHg 98%
    04:00 +20°C° 0.1 mm 1 mps 692 mmHg 98%
    05:00 +21°C° 0.1 mm 1 mps 692 mmHg 98%
    06:00 +21°C° 0.1 mm 1 mps 693 mmHg 98%
    07:00 +21°C° 0.1 mm 1 mps 693 mmHg 98%
    08:00 +23°C° 0 mm 1 mps 694 mmHg 91%
    09:00 +24°C° 0 mm 2 mps 694 mmHg 84%
    10:00 +25°C° 0 mm 2 mps 695 mmHg 77%
    11:00 +26°C° 0.2 mm 2 mps 694 mmHg 74%
    12:00 +27°C° 0.2 mm 2 mps 694 mmHg 70%
    13:00 +28°C° 0.2 mm 2 mps 694 mmHg 67%
    14:00 +27°C° 0.6 mm 2 mps 693 mmHg 72%
    15:00 +27°C° 0.6 mm 2 mps 692 mmHg 78%
    16:00 +26°C° 0.6 mm 1 mps 692 mmHg 83%
    17:00 +25°C° 0.3 mm 1 mps 692 mmHg 87%
    18:00 +24°C° 0.3 mm 1 mps 692 mmHg 91%
    19:00 +20°C° 0.3 mm 0 mps 693 mmHg 94%
    20:00 +20°C° 0.1 mm 0 mps 693 mmHg 95%
    21:00 +22°C° 0.1 mm 1 mps 693 mmHg 95%
    22:00 +21°C° 0.1 mm 1 mps 694 mmHg 95%
    23:00 +21°C° 0 mm 1 mps 693 mmHg 95%

    16 December, Sunday

    Time Temperature Precipitation Wind Pressure Humidity
    00:00 +21°C° 0 mm 1 mps 693 mmHg 95%
    01:00 +21°C° 0 mm 1 mps 692 mmHg 95%
    02:00 +21°C° 0 mm 1 mps 692 mmHg 95%
    03:00 +21°C° 0 mm 1 mps 692 mmHg 94%
    04:00 +21°C° 0 mm 1 mps 692 mmHg 94%
    05:00 +21°C° 0 mm 1 mps 692 mmHg 93%
    06:00 +21°C° 0 mm 1 mps 693 mmHg 93%
    07:00 +21°C° 0 mm 1 mps 693 mmHg 92%
    08:00 +23°C° 0 mm 1 mps 694 mmHg 86%
    09:00 +24°C° 0 mm 1 mps 694 mmHg 80%
    10:00 +26°C° 0 mm 1 mps 694 mmHg 75%
    11:00 +26°C° 0.1 mm 1 mps 694 mmHg 72%
    12:00 +27°C° 0.1 mm 1 mps 693 mmHg 69%
    13:00 +28°C° 0.1 mm 1 mps 693 mmHg 65%
    14:00 +27°C° 0.1 mm 1 mps 692 mmHg 67%
    15:00 +27°C° 0.1 mm 1 mps 692 mmHg 69%
    16:00 +26°C° 0.1 mm 1 mps 691 mmHg 70%
    17:00 +25°C° 0 mm 1 mps 691 mmHg 72%
    18:00 +21°C° 0 mm 0 mps 692 mmHg 73%
    19:00 +20°C° 0 mm 0 mps 692 mmHg 75%
    20:00 +20°C° 0 mm 0 mps 692 mmHg 75%
    21:00 +19°C° 0 mm 0 mps 692 mmHg 75%
    22:00 +19°C° 0 mm 0 mps 693 mmHg 75%
    23:00 +19°C° 0 mm 0 mps 692 mmHg 77%

    17 December, Monday

    Time Temperature Precipitation Wind Pressure Humidity
    00:00 +19°C° 0 mm 0 mps 692 mmHg 79%
    01:00 +19°C° 0 mm 0 mps 692 mmHg 81%
    02:00 +20°C° 0 mm 1 mps 692 mmHg 83%
    03:00 +20°C° 0 mm 1 mps 692 mmHg 86%
    04:00 +20°C° 0 mm 1 mps 692 mmHg 88%
    05:00 +20°C° 0 mm 1 mps 692 mmHg 89%
    06:00 +21°C° 0 mm 1 mps 693 mmHg 89%
    07:00 +19°C° 0 mm 0 mps 693 mmHg 90%
    08:00 +23°C° 0 mm 1 mps 694 mmHg 82%
    09:00 +26°C° 0 mm 1 mps 694 mmHg 75%
    10:00 +28°C° 0 mm 1 mps 694 mmHg 67%
    11:00 +29°C° 0 mm 1 mps 693 mmHg 62%
    12:00 +30°C° 0 mm 1 mps 693 mmHg 56%
    13:00 +31°C° 0 mm 2 mps 692 mmHg 50%
    14:00 +30°C° 0.2 mm 2 mps 692 mmHg 56%
    15:00 +30°C° 0.2 mm 2 mps 691 mmHg 61%
    16:00 +29°C° 0.2 mm 2 mps 691 mmHg 66%
    17:00 +27°C° 0.1 mm 2 mps 691 mmHg 74%
    18:00 +25°C° 0.1 mm 1 mps 691 mmHg 83%
    19:00 +23°C° 0.1 mm 1 mps 691 mmHg 91%
    20:00 +22°C° 0.2 mm 1 mps 691 mmHg 92%
    21:00 +20°C° 0.2 mm 0 mps 692 mmHg 92%
    22:00 +20°C° 0.2 mm 0 mps 692 mmHg 93%
    23:00 +19°C° 0.4 mm 0 mps 692 mmHg 94%

    18 December, Tuesday

    Time Temperature Precipitation Wind Pressure Humidity
    00:00 +21°C° 0.4 mm 1 mps 692 mmHg 95%
    01:00 +21°C° 0.4 mm 1 mps 692 mmHg 97%
    02:00 +21°C° 0 mm 1 mps 692 mmHg 97%
    03:00 +20°C° 0 mm 1 mps 691 mmHg 98%
    04:00 +20°C° 0 mm 1 mps 691 mmHg 99%
    05:00 +21°C° 0 mm 1 mps 692 mmHg 98%
    06:00 +21°C° 0 mm 1 mps 692 mmHg 97%
    07:00 +20°C° 0 mm 0 mps 693 mmHg 96%
    08:00 +24°C° 0 mm 1 mps 693 mmHg 89%
    09:00 +25°C° 0 mm 1 mps 693 mmHg 81%
    10:00 +27°C° 0 mm 1 mps 693 mmHg 74%
    11:00 +28°C° 0.1 mm 1 mps 692 mmHg 68%
    12:00 +30°C° 0.1 mm 1 mps 692 mmHg 62%
    13:00 +31°C° 0.1 mm 2 mps 691 mmHg 56%
    14:00 +30°C° 0.2 mm 2 mps 691 mmHg 60%
    15:00 +30°C° 0.2 mm 2 mps 690 mmHg 65%
    16:00 +29°C° 0.2 mm 2 mps 690 mmHg 70%
    17:00 +27°C° 0.5 mm 2 mps 690 mmHg 77%
    18:00 +25°C° 0.5 mm 1 mps 690 mmHg 85%
    19:00 +23°C° 0.5 mm 1 mps 690 mmHg 93%
    20:00 +23°C° 0 mm 1 mps 691 mmHg 95%
    21:00 +22°C° 0 mm 1 mps 691 mmHg 96%
    22:00 +22°C° 0 mm 1 mps 692 mmHg 98%
    23:00 +21°C° 0.2 mm 1 mps 691 mmHg 98%
    Show more